Location: Finkenwalde
(53.3770°N, 14.6418°E)
Time: 09:57:56
(UTC+00:00)

IRIDIUM 114 - Pass Details

Date: 05 February 2023
Orbit: 776 x 779 km, 86.4° (Epoch: 19 March)

Event Time Altitude Azimuth Distance (km) Brightness Sun altitude
Rises 17:27:19 0° 356° (N) 3,279 7.5 -14.4°
Reaches altitude 10° 17:29:41 10° 358° (N) 2,346 6.8 -14.8°
Maximum altitude 17:34:56 77° 84° (E) 806 4.2 -15.5°
Drops below altitude 10° 17:40:09 10° 171° (S) 2,326 6.8 -16.3°
Sets 17:42:30 0° 173° (S) 3,249 7.5 -16.7°
